SCP
2 2 2 2 2 2 2 2 1 1 1 1 1 1 1 1 1 1 1 1 1 1 1 1 1 1 1 1 1 1 1 1 1 1 1 1 1 1 1 1 1 1 1
3 3 2 2 2 2 2 2 1 1 1 1 1 1 1 1 1 1 1 1 1 1 1 1 1 1 1 1 1 1 1 1 1 1 1 1 1 1 1 1 1 1 1
4 4 3 2 2 2 2 2 1 1 1 1 1 1 1 1 1 1 1 1 1 1 1 1 1 1 1 1 1 1 1 1 1 1 1 1 1 1 1 1 1 1 0
6 5 4 3 3 2 2 2 2 1 1 1 1 1 1 1 1 1 1 1 1 1 1 1 1 1 1 1 1 1 1 1 1 1 1 1 1 1 1 1 1 1 1
7 6 5 4 3 3 2 2 2 2 1 1 1 1 1 1 1 1 1 1 1 1 1 1 1 1 1 1 1 1 1 1 1 1 1 1 0 0 0 0 0 0 0
7 7 6 4 3 3 2 2 2 2 2 1 1 1 1 1 1 1 1 1 1 1 1 1 1 1 1 1 1 1 1 1 1 1 1 1 0 0 0 0 0 0 0
6 6 5 4 3 3 2 2 2 2 2 1 1 1 1 1 1 1 1 1 1 1 1 1 1 1 1 1 1 1 1 1 1 1 1 1 0 0 0 0 0 0 0
4 4 4 4 3 3 2 2 2 2 2 2 2 1 1 1 1 1 1 1 1 2 2 2 2 2 2 1 1 1 1 1 1 1 1 1 1 1 0 0 0 0 0
3 3 3 4 3 3 2 2 2 2 2 2 2 1 1 1 1 1 1 1 1 2 2 2 2 3 2 2 2 1 1 1 1 1 1 1 1 1 1 1 1 1 1
2 3 3 4 4 3 3 2 2 2 2 2 1 1 1 1 1 1 1 1 1 1 1 1 2 3 3 2 2 2 1 1 1 1 1 1 1 1 1 1 1 1 1
4 4 4 4 4 3 3 3 3 3 3 2 2 1 1 1 1 1 1 1 1 1 1 1 2 2 2 2 3 3 2 1 1 1 1 1 1 1 1 1 1 1 1
5 5 5 4 4 4 4 4 3 3 3 3 2 2 1 1 1 1 1 1 1 1 1 1 1 2 2 2 2 2 2 1 1 1 1 1 1 1 1 1 1 1 1
5 4 4 4 4 4 4 4 4 3 3 3 3 2 2 2 2 2 1 1 1 1 1 1 1 1 2 2 2 2 2 1 1 1 1 1 1 1 1 1 1 1 1
3 3 3 3 4 3 3 4 4 3 4 4 3 3 3 2 2 2 2 1 1 1 1 1 1 1 2 2 2 2 2 1 1 1 1 1 1 1 1 1 1 1 1
3 3 2 3 3 3 3 3 3 3 3 4 3 3 3 2 2 2 2 2 1 1 1 1 1 2 2 1 1 2 2 2 1 1 1 1 1 1 1 1 0 0 0
3 3 3 3 3 3 3 3 3 3 3 3 3 2 3 2 2 2 2 2 2 1 1 1 2 2 2 1 2 2 2 2 2 1 1 1 1 1 1 0 0 0 0
4 4 4 3 3 3 3 3 3 2 2 2 2 2 2 2 2 1 1 1 2 2 2 2 2 2 2 2 2 3 3 3 2 2 1 1 1 1 1 0 0 0 0
5 5 5 4 4 4 3 3 2 2 2 2 2 2 2 2 2 2 1 1 1 2 2 2 2 3 3 3 3 3 3 3 3 2 1 1 1 0 0 0 0 0 0
5 5 5 5 5 5 5 4 3 2 2 2 2 2 2 2 2 2 2 2 2 2 2 2 3 4 4 4 4 4 3 4 3 3 2 1 1 0 0 0 0 0 0
5 5 6 7 7 6 6 4 3 2 2 2 2 2 2 2 2 2 2 3 3 2 2 3 3 4 5 5 4 4 3 3 3 3 3 2 1 1 0 0 0 0 0
6 6 7 8 8 7 6 5 3 3 3 2 2 2 2 2 2 2 2 3 3 3 3 3 3 4 5 5 4 4 3 3 3 3 3 2 2 1 1 1 0 0 0
8 8 8 9 8 7 5 4 3 3 3 3 3 3 3 3 2 2 2 2 2 3 3 3 3 4 5 5 4 4 3 3 2 3 2 2 2 2 2 1 1 0 0
11 11 10 10 9 7 5 3 2 3 4 4 4 4 4 3 3 3 3 2 2 2 2 2 3 4 5 4 4 3 3 2 2 2 2 2 2 2 2 2 1 0 0
13 13 12 11 10 7 4 2 1 2 4 5 5 5 5 4 4 4 4 3 3 3 2 2 3 3 3 3 3 3 3 2 2 2 3 2 2 2 2 2 1 1 0
12 12 12 11 10 7 4 2 1 3 4 5 6 6 6 5 4 4 4 4 4 4 3 3 2 2 1 2 2 3 3 3 2 3 3 3 2 2 2 2 2 1 1
11 11 11 11 10 7 4 1 1 3 5 5 6 7 7 6 4 3 4 5 5 4 4 3 2 1 1 1 2 3 4 3 2 3 3 3 2 2 2 2 2 1 1
Wind_Speed
2 2 2 2 2 3 3 2 2 2 1 1 2 2 2 4 5 6 5 8 8 8 8 8 7 7 7 7 7 7 6 7 6 6 6 6 6 6 6 6 5 5 4
3 3 3 2 1 2 2 2 2 2 1 1 1 2 2 3 4 5 6 6 7 7 7 7 7 6 6 7 7 6 6 6 6 6 5 5 5 6 6 5 5 5 4
3 2 2 2 2 2 3 2 2 2 2 2 2 2 2 3 4 4 5 5 5 6 7 6 6 6 6 6 6 7 6 6 5 6 6 5 5 5 5 5 5 4 4
3 2 2 2 2 2 2 2 2 1 1 1 2 1 2 3 3 4 4 4 4 4 5 7 6 6 6 6 6 6 6 6 5 6 6 6 5 5 4 4 4 3 4
3 2 2 1 2 2 1 2 3 1 1 1 2 2 1 2 2 3 3 4 4 4 4 6 7 6 6 6 5 6 6 6 5 5 6 6 6 5 5 4 4 4 5
2 2 2 2 1 1 1 2 2 2 1 1 1 2 2 2 2 2 2 2 3 4 5 6 5 4 6 5 4 4 5 5 5 5 5 6 7 6 4 5 4 5 5
3 2 2 2 2 2 1 2 2 2 1 2 2 1 1 1 2 2 2 2 2 2 3 5 4 3 4 5 4 4 5 5 5 5 5 5 6 5 6 5 5 5 5
2 3 3 1 2 2 2 1 1 1 1 1 2 2 1 0 1 1 2 2 3 3 3 5 4 3 3 3 3 4 3 3 4 4 4 5 5 5 5 6 5 5 5
2 2 3 2 2 2 2 2 2 2 1 0 1 1 1 1 0 1 1 2 2 2 2 3 4 4 4 3 3 4 4 3 3 4 4 5 5 5 6 6 5 5 4
2 2 2 2 1 1 2 2 2 1 2 1 0 0 1 2 2 1 0 2 2 2 1 1 3 4 4 3 4 5 5 4 4 3 3 3 4 4 4 4 5 5 4
2 2 2 1 1 1 2 1 1 1 1 0 0 1 1 1 2 2 1 1 1 1 2 1 2 2 3 3 3 5 6 5 3 3 3 2 2 3 3 3 3 3 2
1 2 2 1 1 0 1 1 1 1 1 0 1 0 0 1 1 1 2 1 1 1 2 1 2 2 2 3 4 7 8 7 5 4 3 3 2 2 2 2 2 2 2
2 2 2 2 1 1 1 1 1 1 1 1 0 0 0 0 0 1 1 1 1 1 1 1 2 2 2 3 4 7 7 7 5 4 3 3 2 2 2 1 1 1 1
1 3 3 2 1 1 1 1 1 1 1 0 0 0 0 0 0 1 1 1 1 1 1 1 1 2 2 3 5 7 5 7 6 5 4 3 3 2 2 1 1 0 0
1 3 2 2 1 1 1 1 1 1 1 0 0 0 1 1 1 0 0 1 1 1 1 1 1 1 2 3 5 4 4 6 7 6 5 4 4 3 2 2 1 1 0
2 2 2 2 2 1 1 0 0 1 1 0 0 0 1 1 1 1 0 0 0 1 1 1 1 2 2 3 5 3 4 7 7 7 6 5 5 4 3 2 2 1 1
2 1 1 1 1 1 1 0 0 1 1 0 0 0 0 1 1 1 1 1 1 2 2 1 1 2 2 1 2 2 3 4 4 8 7 7 6 5 5 4 3 3 2
2 2 1 1 2 2 1 0 1 1 1 1 1 1 0 0 1 1 1 1 0 1 2 2 1 1 1 1 2 2 2 3 4 7 9 8 7 7 6 5 4 4 3
2 2 2 1 1 1 1 1 1 1 1 1 1 1 1 1 1 1 1 0 1 0 1 2 2 1 1 1 1 1 2 1 3 5 7 7 8 7 7 7 6 5 5
2 2 2 1 1 1 1 1 1 1 1 1 1 1 0 0 0 0 0 0 0 0 1 1 1 1 1 1 1 2 1 2 2 2 4 5 7 8 8 7 7 6 6
3 2 2 2 1 1 1 1 1 2 1 1 1 1 1 2 2 1 0 1 0 1 1 1 1 1 1 1 1 2 1 1 1 1 2 3 4 4 5 7 8 7 7
2 3 2 2 1 1 3 3 1 0 1 1 1 1 2 2 2 2 2 1 0 1 1 1 1 1 1 1 1 2 1 1 2 1 1 2 3 3 3 4 6 7 7
3 3 2 2 2 3 4 3 2 0 0 0 0 0 1 1 2 1 1 2 2 2 2 2 2 2 1 1 1 2 2 2 3 2 2 3 2 3 3 4 8 9 9
3 2 2 2 2 2 3 2 1 1 0 0 1 1 1 0 0 0 1 1 1 2 3 3 2 2 2 1 1 2 3 3 3 2 2 2 2 3 2 3 8 10 11
3 3 3 3 2 2 3 2 1 1 1 2 2 0 1 1 0 0 1 1 2 2 2 2 3 3 3 3 2 1 2 2 3 3 2 2 2 2 2 2 5 10 10
4 3 3 3 3 3 4 3 2 1 1 2 1 1 2 1 1 1 1 2 3 3 2 2 2 3 4 4 5 4 3 3 3 2 1 1 2 2 2 1 2 3 5
Wind_Direction
134 135 141 152 156 146 156 162 155 152 131 131 134 137 107 102 111 111 121 133 139 146 153 156 159 164 171 174 172 174 176 177 176 175 177 182 182 184 181 185 186 189 191
139 146 153 158 148 142 145 149 142 138 143 124 129 120 107 106 112 122 130 134 139 144 151 160 166 169 170 175 176 174 179 182 180 181 184 185 184 182 183 187 190 196 203
131 147 152 155 159 160 151 150 160 150 162 152 133 123 112 110 122 129 136 142 147 152 152 153 157 164 170 172 176 181 180 180 179 178 182 184 183 183 185 190 199 206 214
146 152 152 156 166 157 150 147 138 133 133 124 127 132 130 131 134 136 141 150 158 159 160 158 158 165 172 172 174 178 179 179 183 184 183 182 181 178 180 190 204 214 225
141 148 144 136 151 133 150 151 122 138 131 127 140 145 148 142 141 146 147 154 153 148 153 159 161 160 170 176 183 182 179 182 186 187 188 190 192 185 190 205 216 226 235
130 128 134 136 126 108 106 104 119 138 150 165 136 128 141 126 138 139 151 139 140 157 159 156 159 159 164 173 178 181 180 179 184 191 195 199 199 195 197 211 218 226 233
117 122 99 124 125 115 122 121 133 150 141 119 100 87 96 122 141 135 138 135 138 146 129 134 147 151 153 164 170 177 178 176 178 185 193 198 196 195 206 214 217 226 232
118 131 117 126 115 124 129 132 146 130 141 145 148 137 117 76 8 126 143 147 139 141 139 140 139 144 144 148 155 170 172 184 189 186 188 192 194 200 206 216 221 222 226
119 97 115 122 125 143 143 162 159 155 157 116 85 135 140 140 100 68 93 110 117 118 133 142 144 146 151 139 141 156 170 173 180 182 191 197 198 203 210 217 223 225 228
100 93 106 110 107 108 136 184 157 166 152 176 133 63 121 136 150 141 179 117 131 137 151 146 140 145 141 130 129 135 155 171 172 183 184 186 192 193 201 213 223 226 222
120 114 116 116 108 120 140 118 118 136 122 150 164 126 102 111 140 153 162 153 129 170 158 148 141 144 139 138 146 139 147 157 159 154 151 154 161 169 180 196 210 217 222
148 142 138 119 112 130 127 128 141 138 113 62 9 24 113 130 159 151 163 170 162 170 156 147 139 132 135 138 139 140 144 147 148 149 149 148 152 166 180 194 213 226 231
145 148 124 126 128 121 128 143 152 149 146 156 167 314 351 48 81 125 144 153 147 155 151 162 144 136 139 126 126 134 144 147 148 148 147 149 151 160 173 191 218 231 245
119 132 128 129 129 130 115 117 131 168 152 168 271 334 312 306 313 140 156 161 151 153 156 139 121 130 127 131 143 151 143 150 156 158 160 161 159 157 157 153 153 167 333
144 118 122 125 117 88 40 37 90 53 80 156 243 198 256 289 288 264 196 182 164 164 168 118 113 129 127 116 142 156 146 157 165 170 174 175 174 171 165 157 154 148 94
96 124 131 134 138 136 141 295 125 113 115 262 279 339 322 318 316 310 298 203 136 144 139 125 126 123 125 136 155 168 160 164 172 175 179 183 185 182 181 180 178 174 168
140 140 148 156 156 144 133 92 175 165 163 218 266 135 197 356 343 341 350 42 80 114 127 122 104 110 109 95 147 183 162 174 177 187 188 191 193 193 194 195 196 192 195
147 150 164 167 175 150 140 155 272 79 89 82 40 18 334 31 32 345 1 41 69 149 140 142 145 147 167 181 186 211 191 197 182 184 191 195 196 197 200 202 203 205 208
154 153 156 157 162 146 153 145 89 64 59 70 73 31 9 1 23 23 39 338 242 157 136 147 162 157 179 198 189 231 236 245 212 178 187 196 201 200 201 205 206 208 208
152 157 151 153 152 133 141 143 144 144 122 101 100 98 72 33 64 292 179 303 345 356 163 166 166 177 189 196 182 239 246 245 239 190 188 193 196 200 206 205 207 209 209
165 154 153 156 154 163 171 144 176 172 168 162 154 134 110 88 76 47 35 42 351 300 251 225 185 171 205 188 235 244 247 257 241 222 193 202 188 195 202 209 214 214 210
165 155 162 161 175 161 93 95 85 176 167 178 172 154 154 134 128 113 75 61 98 251 290 284 285 255 253 245 259 262 254 259 260 221 221 241 201 200 201 197 196 198 205
171 166 164 158 133 92 83 90 73 316 137 104 135 182 236 142 148 153 181 215 230 245 234 232 268 276 265 268 264 271 274 263 261 247 224 255 231 217 214 195 183 193 202
174 175 178 164 152 130 116 106 62 208 269 276 254 233 252 63 352 129 205 206 243 254 240 228 249 270 274 303 250 256 263 262 259 254 219 248 254 242 227 185 189 195 203
176 188 177 170 163 150 154 153 157 213 240 261 260 201 124 135 15 44 247 262 265 261 247 244 241 252 264 266 249 270 284 287 281 265 226 231 264 274 235 211 202 202 206
187 189 179 179 176 171 171 175 185 230 239 250 246 164 106 74 92 103 263 266 275 284 287 266 251 249 244 239 227 219 241 263 278 276 233 238 270 291 276 237 191 191 214